Tracking 31027 objects as of 19-Jul-2025
HD Live streaming from Space Station
objects crossing your sky now

FENGYUN 1C DEB

Track FENGYUN 1C DEB now!
10-day predictions


NORAD ID: 47100
Int'l Code: 1999-025FBY
Perigee: 670.0 km
Apogee: 805.7 km
Inclination: 99.0 °
Period: 99.4 minutes
Semi major axis: 7108 km
RCS: Unknown
Launch date: May 10, 1999
Source: People's Republic of China (PRC)
Launch site: Taiyaun Space Center, China (TSC)

Note: This is SATELLITE DEBRIS
Your satellite tracking list
FLOCK 3K 7
Track 1 satellite(s)




NASA's NSSDC Master Catalog

Two Line Element Set (TLE):
1 47100U 99025FBY 25199.40648794  .00004923  00000-0  12521-2 0  9996
2 47100  99.0185   8.6286 0095438  75.8633 285.3140 14.48458781246338
Source of the keplerian elements: AFSPC